Regional Weather Roundup
Issued by NWS

Home | Current Version | Previous Version | Graphics & Text | Print | Product List | Glossary On
Versions: 1 2 3 4 5 6 7 8 9 10 11 12 13 14 15 16 17 18 19 20 21 22 23 24 25 26 27 28 29 30 31 32 33 34 35 36 37 38 39 40 41 42 43 44 45 46 47 48 49 50
893
ASUS45 KCYS 241510
RWRWY

WYOMING REGIONAL WEATHER ROUNDUP
NATIONAL WEATHER SERVICE CHEYENNE WY
900 AM MDT FRI MAR 24 2017

NOTE:  "FAIR" INDICATES FEW OR NO CLOUDS BELOW 12,000 FEET
WITH NO SIGNIFICANT WEATHER AND/OR OBSTRUCTIONS TO VISIBILITY.

WYZ001-241600-
YELLOWSTONE NATIONAL PARK

CITY           SKY/WX    TMP DP  RH WIND       PRES   REMARKS
LK YELLOWSTONE   N/A     23  21  92 SE3       30.18S
W YELLOWSTONE  NOT AVBL

$$
WYZ002>013-054>058-071-098>099-241600-
NORTHERN WYOMING

CITY           SKY/WX    TMP DP  RH WIND       PRES   REMARKS
JACKSON        SUNNY     25  25 100 CALM      30.20R
CODY           FAIR      42  27  55 SW18      30.12S
GREYBULL       FAIR      36  33  89 SE3       30.13S
WORLAND        FAIR      38  35  89 CALM      30.13S
SHERIDAN       FAIR      40  33  76 SW3       30.11S
BUFFALO        FAIR      46  30  53 S5        30.12S
GILLETTE       FAIR      44  37  76 W5        30.12R
HULETT         FAIR      41  37  87 S6        30.13R
NEWCASTLE      FAIR      37  32  81 NW6       30.14R WCI  33

$$
WYZ014>020-022>026-101>103-241600-
CENTRAL WYOMING

CITY           SKY/WX    TMP DP  RH WIND       PRES   REMARKS
BIG PINEY      FAIR      29  25  85 VRB3      30.21R
PINEDALE       PTSUNNY   27  21  80 N3        30.22R
DUBOIS         FAIR      27  21  80 NW12      30.16S WCI  16
LANDER         FAIR      38  32  79 E6        30.14S WCI  33
RIVERTON       FAIR      38  34  85 W5        30.16R WCI  34
CASPER         FAIR      38  35  89 SW9       30.16S WCI  31
DOUGLAS          N/A     39  36  89 NW13      30.16R WCI  31

$$
WYZ021-027>030-104>119-241600-
SOUTHERN WYOMING

CITY           SKY/WX    TMP DP  RH WIND       PRES   REMARKS
EVANSTON       FAIR      30  26  85 S3        30.21R
FORT BRIDGER   FAIR      36  29  75 W8        30.24R WCI  30
ROCK SPRINGS   CLOUDY    38  33  82 SW6       30.20R WCI  33
DIXON            N/A     38  30  73 NE14      30.20R WCI  30
RAWLINS        FAIR      38  28  67 N9        30.18R WCI  31
SARATOGA       CLOUDY    34  30  86 NW13      30.18S WCI  25
LARAMIE        CLOUDY    31  29  92 N8        30.14R WCI  23
CHEYENNE       CLOUDY    35  31  85 N18G29    30.10R WCI  24
TORRINGTON     CLOUDY    44  36  73 N12       30.11R
PINE BLUFFS    FAIR      37  36  93 N26G35    30.05S WCI  26

$$




USA.gov is the U.S. government's official web portal to all federal, state and local government web resources and services.